Location: Fours
(44.3167°N, 6.7000°E)
Time: 04:26:57
(UTC+00:00)

Cosmos 1470 Rocket - Pass Details

Date: 30 November 2020
Orbit: 604 x 633 km, 82.5° (Epoch: 24 January)

Event Time Altitude Azimuth Distance (km) Brightness Sun altitude
Rises 16:49:59 0° 359° (N) 2,873 6.8 -9.6°
Reaches altitude 10° 16:52:21 10° 7° (N) 1,963 5.9 -10.0°
Maximum altitude 16:56:24 37° 76° (ENE) 943 4.0 -10.7°
Drops below altitude 10° 17:00:24 10° 144° (SE) 1,948 6.0 -11.3°
Sets 17:02:44 0° 153° (SSE) 2,848 6.9 -11.7°
